OE3PDB-4 Weather Reports


Display with metric or nautical units.
time (UTC)temp
F
wind
direction
speed
MPH
gust
MPH
rain 1hr
in
rain 24hr
in
rain mn
in
humidity
%
barometer
mb
20260506133958 80 180 1.0 1.0 0.00 0.00 0.00 35 1005.5
20260506132958 79 292 2.0 2.0 0.00 0.00 0.00 37 1005.6
20260506131958 78 225 0.0 0.0 0.00 0.00 0.00 37 1005.6
20260506130958 76 337 0.0 0.0 0.00 0.00 0.00 38 1005.7
20260506125958 75 292 0.0 0.0 0.00 0.00 0.00 39 1005.9
20260506124958 75 157 0.0 0.0 0.00 0.00 0.00 39 1005.9
20260506123958 75 157 0.0 2.0 0.00 0.00 0.00 39 1006.1
20260506122958 75 157 0.0 0.0 0.00 0.00 0.00 39 1006.4
20260506121958 75 180 1.0 1.0 0.00 0.00 0.00 40 1006.5
20260506120958 75 180 0.0 1.0 0.00 0.00 0.00 40 1006.8
20260506115958 75 180 3.0 3.0 0.00 0.00 0.00 39 1006.9
20260506114958 76 180 4.0 4.0 0.00 0.00 0.00 39 1006.9
20260506113958 77 180 0.0 4.0 0.00 0.00 0.00 39 1007.0
20260506112959 78 180 2.0 2.0 0.00 0.00 0.00 39 1007.2
20260506111958 78 157 4.0 4.0 0.00 0.00 0.00 40 1007.3
20260506110959 78 157 4.0 4.0 0.00 0.00 0.00 41 1007.4
20260506105959 77 157 0.0 2.0 0.00 0.00 0.00 41 1007.5
20260506104959 77 202 0.0 2.0 0.00 0.00 0.00 42 1007.7
20260506103959 76 0 0.0 0.0 0.00 0.00 0.00 42 1008.0
20260506102959 75 180 2.0 3.0 0.00 0.00 0.00 42 1008.1
20260506101959 75 292 0.0 1.0 0.00 0.00 0.00 42 1008.1
20260506100959 76 157 0.0 2.0 0.00 0.00 0.00 42 1008.2
20260506095959 75 315 0.0 1.0 0.00 0.00 0.00 43 1008.3
20260506094959 75 247 3.0 3.0 0.00 0.00 0.00 42 1008.3
20260506093959 75 202 0.0 0.0 0.00 0.00 0.00 42 1008.5
20260506092959 75 157 2.0 2.0 0.00 0.00 0.00 43 1008.5
20260506091959 74 180 0.0 0.0 0.00 0.00 0.00 44 1008.7
20260506090959 74 337 1.0 1.0 0.00 0.00 0.00 44 1008.7
20260506085959 74 157 0.0 6.0 0.00 0.00 0.00 44 1008.6
20260506084959 74 315 0.0 1.0 0.00 0.00 0.00 43 1008.8
20260506083959 74 270 0.0 0.0 0.00 0.00 0.00 45 1008.7
20260506082959 73 180 0.0 0.0 0.00 0.00 0.00 47 1008.7
20260506081959 73 157 0.0 2.0 0.00 0.00 0.00 46 1008.7
20260506080959 72 157 0.0 0.0 0.00 0.00 0.00 47 1008.9
20260506072959 70 247 0.0 0.0 0.00 0.00 0.00 52 1009.1
20260506071959 69 247 0.0 0.0 0.00 0.00 0.00 53 1009.1
20260506070959 68 292 0.0 0.0 0.00 0.00 0.00 54 1009.1
20260506061959 65 315 0.0 0.0 0.00 0.00 0.00 59 1009.5
20260506060959 64 315 0.0 0.0 0.00 0.00 0.00 62 1009.5
20260506050959 61 315 0.0 0.0 0.00 0.00 0.00 65 1009.5
20260506044959 61 315 0.0 0.0 0.00 0.00 0.00 64 1009.5
20260506043959 61 315 0.0 0.0 0.00 0.00 0.00 64 1009.4
20260506042959 61 315 0.0 0.0 0.00 0.00 0.00 64 1009.3
20260506041959 61 315 0.0 0.0 0.00 0.00 0.00 64 1009.1
20260506040959 61 315 0.0 0.0 0.00 0.00 0.00 63 1009.2
20260506035959 61 315 0.0 0.0 0.00 0.00 0.00 63 1009.1
20260506034959 61 315 0.0 0.0 0.00 0.00 0.00 63 1009.1
20260506033959 61 315 0.0 0.0 0.00 0.00 0.00 63 1009.0
20260506032959 61 315 0.0 0.0 0.00 0.00 0.00 63 1009.0
20260506031959 61 315 0.0 1.0 0.00 0.00 0.00 63 1008.9
20260506030959 61 315 0.0 2.0 0.00 0.00 0.00 63 1008.8
20260506025959 61 315 0.0 2.0 0.00 0.00 0.00 63 1008.8
20260506024959 61 337 0.0 0.0 0.00 0.00 0.00 63 1008.9
20260506023959 62 270 0.0 0.0 0.00 0.00 0.00 63 1008.8
20260506022959 62 292 0.0 0.0 0.00 0.00 0.00 63 1008.8
20260506021959 62 292 0.0 0.0 0.00 0.00 0.00 63 1008.8
20260506020959 62 270 0.0 0.0 0.00 0.00 0.00 63 1008.7
20260506015959 62 337 0.0 0.0 0.00 0.00 0.00 63 1008.6
20260506014959 62 247 0.0 0.0 0.00 0.00 0.00 63 1008.6
20260506013959 62 247 0.0 0.0 0.00 0.00 0.00 63 1008.5
20260506012959 62 315 0.0 0.0 0.00 0.00 0.00 63 1008.5
20260506011959 62 315 1.0 2.0 0.00 0.00 0.00 62 1008.3
20260506010959 62 0 0.0 0.0 0.00 0.00 0.00 63 1008.2
20260506005959 62 225 0.0 1.0 0.00 0.00 0.00 63 1008.2
20260506004959 61 337 0.0 5.0 0.00 0.00 0.00 63 1008.1
20260506004000 61 270 0.0 1.0 0.00 0.00 0.00 63 1008.1
20260506002959 60 315 0.0 2.0 0.00 0.00 0.00 63 1008.0
20260506001959 60 315 0.0 0.0 0.00 0.00 0.00 62 1007.9
20260506000959 60 180 0.0 0.0 0.00 0.00 0.00 61 1007.8
20260505235959 60 180 0.0 0.0 0.00 0.00 0.00 60 1007.7
20260505235000 60 180 0.0 0.0 0.00 0.00 0.00 60 1007.7
20260505234000 60 180 0.0 0.0 0.00 0.00 0.00 60 1007.6
20260505233000 60 180 0.0 0.0 0.00 0.00 0.00 60 1007.5
20260505232000 60 180 0.0 0.0 0.00 0.00 0.00 60 1007.5
20260505231000 59 180 0.0 0.0 0.00 0.00 0.00 60 1007.5
20260505230000 59 180 0.0 0.0 0.00 0.00 0.00 59 1007.3
20260505225000 59 180 0.0 0.0 0.00 0.00 0.00 59 1007.3
20260505224000 60 180 0.0 0.0 0.00 0.00 0.00 58 1007.1
20260505223000 60 180 0.0 0.0 0.00 0.00 0.00 57 1006.9
20260505222000 60 180 0.0 0.0 0.00 0.00 0.00 57 1006.9
20260505221000 61 180 0.0 0.0 0.00 0.00 0.00 56 1006.7
20260505220000 61 180 0.0 0.0 0.00 0.00 0.00 55 1006.7
20260505215000 61 180 0.0 0.0 0.00 0.00 0.00 55 1006.6
20260505214000 62 180 0.0 0.0 0.00 0.00 0.00 54 1006.6
20260505213000 62 180 0.0 0.0 0.00 0.00 0.00 54 1006.5
20260505212000 63 180 0.0 0.0 0.00 0.00 0.00 54 1006.3
20260505211000 63 180 0.0 0.0 0.00 0.00 0.00 53 1006.2
20260505210000 64 180 0.0 0.0 0.00 0.00 0.00 52 1006.2
20260505205000 64 180 0.0 0.0 0.00 0.00 0.00 51 1006.4
20260505204000 65 157 0.0 0.0 0.00 0.00 0.00 50 1006.2
20260505203000 66 157 0.0 0.0 0.00 0.00 0.00 49 1005.9
20260505202000 66 157 0.0 0.0 0.00 0.00 0.00 49 1005.7
20260505201000 67 157 0.0 0.0 0.00 0.00 0.00 48 1005.7
20260505200000 67 157 0.0 0.0 0.00 0.00 0.00 48 1005.5
20260505195000 67 157 0.0 0.0 0.00 0.00 0.00 47 1005.5
20260505194000 67 157 0.0 0.0 0.00 0.00 0.00 47 1005.5
20260505193000 68 157 0.0 0.0 0.00 0.00 0.00 46 1005.5
20260505192000 68 157 0.0 0.0 0.00 0.00 0.00 46 1005.4
20260505191000 68 157 0.0 0.0 0.00 0.00 0.00 45 1005.4
20260505190000 69 180 0.0 0.0 0.00 0.00 0.00 44 1005.4
20260505185000 69 180 0.0 0.0 0.00 0.00 0.00 44 1005.4
20260505184000 69 180 0.0 0.0 0.00 0.00 0.00 43 1005.3
20260505183000 70 157 2.0 2.0 0.00 0.00 0.00 42 1005.2
20260505182000 70 157 0.0 0.0 0.00 0.00 0.00 42 1005.2
20260505181000 70 157 0.0 0.0 0.00 0.00 0.00 41 1005.2
20260505180000 71 157 2.0 2.0 0.00 0.00 0.00 40 1005.1
20260505175000 72 180 2.0 2.0 0.00 0.00 0.00 40 1005.2
20260505174000 72 270 0.0 0.0 0.00 0.00 0.00 40 1005.1
20260505173000 73 202 0.0 0.0 0.00 0.00 0.00 39 1005.0
20260505172000 73 180 0.0 0.0 0.00 0.00 0.00 39 1005.1
20260505171000 74 315 0.0 0.0 0.00 0.00 0.00 38 1005.1
20260505170000 74 157 0.0 0.0 0.00 0.00 0.00 38 1005.3
20260505165000 75 157 0.0 0.0 0.00 0.00 0.00 38 1005.4
20260505164000 75 157 0.0 0.0 0.00 0.00 0.00 37 1005.4
20260505163000 75 180 0.0 4.0 0.00 0.00 0.00 36 1005.4
20260505162000 76 180 2.0 2.0 0.00 0.00 0.00 36 1005.4
20260505161000 77 202 2.0 2.0 0.00 0.00 0.00 35 1005.4
20260505153000 79 180 0.0 2.0 0.00 0.00 0.00 32 1005.4
20260505152000 80 157 4.0 4.0 0.00 0.00 0.00 31 1005.5
20260505151000 81 157 0.0 0.0 0.00 0.00 0.00 29 1005.5